Find Starlink 34946

NORAD ID: 65367 Int'l Des: 2025-190 Owner: SPXS Country: US Constellation: starlink operational
LEOCIRCULAR

現在のビュー

3D地球を読み込み中...

Starlink 34946について

説明を読み込み中...

次回通過

Passes for default location (London). Set your location on the main map for personalized predictions.

高度履歴

Loading altitude history...

軌道要素

1 65367U 25190S 26150.37524786 .00032893 00000-0 98038-3 0 9996
2 65367 53.1596 148.6116 0001127 88.0803 272.0328 15.34399989 42261
Epoch: May 30, 2026 • Age: 9 hours

現在のステータス

高度 481.5 km
速度 7.62 km/s
衛星直下点 -52.31°S, 116.07°W
打ち上げ日 Aug 28, 2025
運用期間 0.7 years
タイプ internet

技術仕様

分類 Payload
質量 575.00 kg
乾燥質量 530.00 kg
総質量 575.00 kg
長さ 0.30 m
直径 4.10 m
スパン 29.00 m
形状 Box + pan
製造者 SPXS
バスタイプ Starlink V2MO
フェーズステータス In Orbit
所有者/国 SPXS/US

Most Searched